Location: Unspecified
(0.0000°N, 0.0000°E)
Time: 16:45:18
(UTC+00:00)

ITAMSAT 1 - Pass Details

Date: 29 September 2021
Orbit: 783 x 797 km, 98.9° (Epoch: 22 October)

Event Time Altitude Azimuth Distance (km) Brightness Sun altitude
Rises 18:35:48 0° 161° (SSE) 3,289 10.7 -11.4°
Reaches altitude 10° 18:38:10 10° 158° (SSE) 2,356 9.9 -12.0°
Maximum altitude 18:43:18 63° 77° (ENE) 880 7.6 -13.3°
Drops below altitude 10° 18:48:23 10° 357° (N) 2,337 10.1 -14.5°
Sets 18:50:43 0° 354° (N) 3,261 10.9 -15.1°
